Sawtelle Peak

Sawtelle summit stationLocated on Sawtelle Peak in the Centennials. Use the Sawtelle SNOdar or the nearest SNOTEL station for snow depth data: White Elephant. The data on this page is also available to view at dataGarrison.com.

 

Elevation
9885ft
Jump to table bottom
Date Time Temperature
deg F
RH, % Wind Speed Wind Gust Wind Direction Pressure Light
02/01/23 15:00 14.6 95 0 0 S - 192 703.700 327,225
02/01/23 14:00 13.9 94 0 0 S - 194 703.200 315,022
02/01/23 13:00 13.4 94 0 0 S - 192 703.480 475,705
02/01/23 12:00 12.8 94 0 0 S - 192 703.120 357,735
02/01/23 11:00 12.3 94 0 0 S - 191 703.500 406,550
02/01/23 10:00 10.8 93 0 0 S - 191 703.280 441,128
02/01/23 09:00 9.2 93 0 0 S - 192 702.800 164,508
02/01/23 08:00 8.1 92 0 0 S - 191 702.280 30,138
02/01/23 07:00 7.5 92 0 0 S - 194 701.540 43
02/01/23 06:00 7.4 92 0 0 S - 194 701.500 0
02/01/23 05:00 6.7 92 0 0 S - 195 701.580 0
02/01/23 04:00 6.4 92 0 0 S - 194 701.320 0
02/01/23 03:00 6.0 92 0 0 S - 191 701.440 0
02/01/23 02:00 4.7 91 0 0 S - 190 700.620 0
02/01/23 01:00 4.4 91 0 0 S - 185 701.080 1
02/01/23 00:00 5.0 91 0 0 S - 183 701.280 1
01/31/23 23:00 4.3 91 0 0 S - 184 701.000 0
01/31/23 22:00 2.6 91 0 0 S - 188 700.780 0
01/31/23 21:00 1.2 90 0 0 S - 185 700.540 1
01/31/23 20:00 -1.7 89 0 0 S - 188 700.060 1
01/31/23 19:00 -1.3 90 0 0 S - 180 699.880 1
01/31/23 18:00 1.9 91 0 0 S - 181 699.420 4
01/31/23 17:00 3.4 91 0 0 S - 184 700.060 12,532
01/31/23 16:00 2.8 91 0 0 S - 187 699.620 97,895
01/31/23 15:00 2.7 91 0 0 S - 184 699.580 230,612
01/31/23 14:00 4.8 92 0 0 S - 183 699.000 310,954
01/31/23 13:00 5.0 92 0 0 S - 188 699.780 575,370
01/31/23 12:00 4.2 91 0 0 S - 188 700.260 546,894
01/31/23 11:00 3.7 91 0 0 S - 185 700.480 378,075
01/31/23 10:00 2.2 90 0 0 S - 190 700.260 404,516
01/31/23 09:00 -0.3 90 0 0 S - 191 699.880 296,716
01/31/23 08:00 -0.6 89 0 0 S - 188 699.540 60,012
01/31/23 07:00 -1.1 89 0 0 S - 190 699.300 48
01/31/23 06:00 -2.8 89 0 0 S - 191 698.640 0
01/31/23 05:00 -5.0 88 0 0 S - 190 698.800 0
01/31/23 04:00 -7.3 87 0 0 S - 185 698.680 0
01/31/23 03:00 -8.5 87 0 0 S - 184 698.800 0
01/31/23 02:00 -9.3 87 0 0 S - 181 698.560 0
01/31/23 01:00 -9.9 86 0 0 S - 181 698.340 0
01/31/23 00:00 -10.2 86 0 0 S - 187 698.220 0
01/30/23 23:00 -10.4 86 0 0 S - 188 698.060 0
01/30/23 22:00 -10.2 86 0 0 S - 190 697.980 0
01/30/23 21:00 -9.5 87 0 0 S - 192 697.740 0
01/30/23 20:00 -9.3 87 0 0 S - 190 697.920 1
01/30/23 19:00 -8.8 87 0 0 S - 187 698.080 1
01/30/23 18:00 -8.0 87 0 0 S - 191 697.940 5
01/30/23 17:00 -6.9 88 0 0 S - 190 697.880 34,206
01/30/23 16:00 -6.3 88 0 0 S - 188 697.660 181,796
01/30/23 15:00 -7.3 87 0 0 S - 195 697.440 306,886
01/30/23 14:00 -8.5 87 0 0 S - 199 697.220 392,312